WESTFORD NEEDLES, 2381

Orbit data source: Space-Track

WESTFORD NEEDLES, 2381 is space debris in LEO originally from a launch on Thu, 09 May 1963 UTC launched from the Air Force Western Test Range (AFWTR). Debris objects in space refer to the collection of defunct objects orbiting the Earth. Examples of debris include non-operational satellites, rocket bodies, and fragments generated from explosions, collisions, or faulty payload assembly.

Loading next visibility...
Identifier
2381, 1963-014AB
Orbit
LEO
Country
Flag of USUS
Related business
Manufacturer
Unknown
Mission
Spacecraft
Bus & Motor
Unknown
Mass
Unknown
Launch date (UTC)
1963-05-09 (63 years ago)
Launch vehicle
Unknown
Launch site
Air Force Western Test Range (AFWTR)
Object type
Payload
Rocket body
Debris
Shape & HBR
Unknown shape, 0.3 m
Radar Cross Section
Medium (>0.1 m² and <1 m²)

Expand to show TLE details & history
Last TLE update: 3 weeks ago

TLE from 3 weeks ago
0 WESTFORD NEEDLES
1 02381U 63014AB  26151.30849757 -.00000204  00000-0 -92697-1 0  9998
2 02381  87.2902  99.1059 0197069 235.5849 122.6236  8.67426759389809
Epoch: 2026-05-31T07:24Z
TLE epoch observation values (Epoch: 2026-05-31T07:24:14.190Z)
Latitude
0.00001°
Longitude
99.23474°
Altitude
3,738.761 km
Speed
6.243 km/s
True Right ascension
06h 36m 25s
True Declination
0° 00' 00"
Sunlit
Object was in daylight at epoch
Visualization orbit readout
Latitude
Unknown
Longitude
Unknown
Altitude
Unknown
Speed
Unknown
Apparent Right ascension
Unknown
Apparent Declination
Unknown
Sunlit
N/A
Visualization observer readout
Local Sidereal Time
07:10:07
Azimuth
Unknown
Elevation
Unknown
Doppler factor
Unknown
Orbital elements
Apogee altitude
3,822.501 km
Perigee altitude
3,428.225 km
Semi-major axis
10,003.5 km
Eccentricity
0.01971
Inclination
87.2902°
RAAN
99.1059°
Arg. of periapsis
235.5849°
True anomaly
124.50029°
Mean anomaly
122.6236°
Eccentric anomaly
123.56446°
Mean motion
2.16928 °/min
Orbital period
165.95 mins
BSTAR
-0.092697

Documentation

Showing up to 5 results
|